Powrót do katalogu

ONEWEB-0586

AktywnyŁącznośćPO
NORAD 54653·PAYLOAD·🇬🇧 United Kingdom

Wystrzelony Dec 8, 2022 z Cape Canaveral Space Force Station

Loading…

Następne Przeloty (najbliższe 24 godziny)

TLE

ŚwieżeSource: CelesTrak SupGP

Epoka: Sep 14, 2026, 13:04 UTC

1 54653C 22166M   26257.54493472 -.00001352  00000+0 -32782-2 0  2573
2 54653  87.9276 226.2065 0002349  87.7967  21.6106 13.21826815    13

Śledź ONEWEB-0586 w czasie rzeczywistym z AllMySat

Download on the App Store